SAS2939 ESGG-LGAV

Flight info

Callsign SAS2939
Flight time 3h 8m
Altitude 35000
Route TOPLA DCT KEMAX DCT POKEN Z491 VAVUN L996 DENKO L616 DESEN DCT MAKAL DCT PATAK DCT PARAK DCT OSVIX DCT RAXAD DCT MAKED UP20 ROPOX
Aircraft A320/M-SDE3FGHIRWY/LB1

Departure

Time 2026-05-06 11:26
Airport Göteborg Landvetter Airport (ESGG)

Arrival

Time 2026-05-06 14:35
Airport Athens Eleftherios Venizelos International Airport (LGAV)
Time Latitude Longitude Altitude Speed Heading
2026-05-06 11:06 57.66728 12.29266 516 ft 0 kts 116°
2026-05-06 11:18 57.66734 12.29245 516 ft 4 kts 120°
2026-05-06 11:19 57.66745 12.29207 516 ft 3 kts 116°
2026-05-06 11:19 57.66760 12.29173 516 ft 4 kts 165°
2026-05-06 11:19 57.66784 12.29176 516 ft 4 kts 202°
2026-05-06 11:19 57.66793 12.29183 516 ft 0 kts 205°
2026-05-06 11:22 57.66792 12.29182 516 ft 1 kts 205°
2026-05-06 11:22 57.66771 12.29156 516 ft 9 kts 227°
2026-05-06 11:23 57.66788 12.29022 516 ft 12 kts 293°
2026-05-06 11:23 57.66803 12.28972 516 ft 1 kts 309°
2026-05-06 11:23 57.66811 12.28963 516 ft 2 kts 343°
2026-05-06 11:23 57.66847 12.28996 516 ft 10 kts 29°
2026-05-06 11:24 57.66926 12.29075 516 ft 16 kts 27°
2026-05-06 11:24 57.67043 12.29184 516 ft 22 kts 26°
2026-05-06 11:24 57.67182 12.29311 516 ft 23 kts 26°
2026-05-06 11:24 57.67331 12.29446 516 ft 22 kts 26°
2026-05-06 11:25 57.67428 12.29417 515 ft 15 kts 299°
2026-05-06 11:25 57.67460 12.29273 515 ft 9 kts 280°
2026-05-06 11:25 57.67454 12.29123 514 ft 14 kts 263°
2026-05-06 11:25 57.67421 12.29010 515 ft 14 kts 205°
2026-05-06 11:26 57.67167 12.28784 514 ft 73 kts 206°
2026-05-06 11:26 57.66533 12.28207 512 ft 127 kts 206°
2026-05-06 11:26 57.65605 12.27363 544 ft 165 kts 207°
2026-05-06 11:26 57.64600 12.26476 1124 ft 158 kts 206°
2026-05-06 11:27 57.63610 12.25593 1718 ft 158 kts 206°
2026-05-06 11:27 57.62590 12.24664 2055 ft 173 kts 206°
2026-05-06 11:27 57.61433 12.23628 2298 ft 195 kts 201°
2026-05-06 11:27 57.60031 12.23091 2576 ft 218 kts 186°
2026-05-06 11:28 57.58453 12.22846 2981 ft 235 kts 183°
2026-05-06 11:28 57.56747 12.22643 3433 ft 255 kts 182°
2026-05-06 11:28 57.54958 12.22677 4242 ft 260 kts 170°
2026-05-06 11:28 57.53174 12.23215 5180 ft 260 kts 169°
2026-05-06 11:29 57.51386 12.23732 6097 ft 261 kts 171°
2026-05-06 11:29 57.49574 12.24240 6898 ft 265 kts 171°
2026-05-06 11:29 57.47738 12.24739 7665 ft 269 kts 172°
2026-05-06 11:29 57.45867 12.25240 8414 ft 274 kts 172°
2026-05-06 11:30 57.43960 12.25755 9182 ft 279 kts 172°
2026-05-06 11:30 57.42022 12.26277 9902 ft 284 kts 173°
2026-05-06 11:30 57.40028 12.26813 10325 ft 300 kts 173°
2026-05-06 11:30 57.37887 12.27385 10496 ft 322 kts 173°
2026-05-06 11:31 57.35635 12.27987 10988 ft 331 kts 173°
2026-05-06 11:31 57.33342 12.28602 11632 ft 335 kts 173°
2026-05-06 11:31 57.31027 12.29223 12306 ft 338 kts 174°
2026-05-06 11:31 57.28685 12.29848 12976 ft 342 kts 174°
2026-05-06 11:32 57.26322 12.30486 13647 ft 345 kts 174°
2026-05-06 11:32 57.23939 12.31124 14250 ft 348 kts 174°
2026-05-06 11:32 57.21533 12.31773 14853 ft 350 kts 175°
2026-05-06 11:32 57.19115 12.32418 15456 ft 352 kts 175°
2026-05-06 11:33 57.16680 12.33061 16046 ft 355 kts 175°
2026-05-06 11:33 57.14248 12.33983 16645 ft 361 kts 166°
2026-05-06 11:33 57.11943 12.35759 17225 ft 369 kts 155°
2026-05-06 11:33 57.09740 12.38242 17790 ft 373 kts 152°
2026-05-06 11:34 57.07528 12.40777 18349 ft 376 kts 153°
2026-05-06 11:34 57.05262 12.43360 18864 ft 379 kts 153°
2026-05-06 11:34 57.03014 12.45921 19396 ft 382 kts 153°
2026-05-06 11:34 57.00778 12.48458 19900 ft 384 kts 153°
2026-05-06 11:35 56.98495 12.51031 20442 ft 386 kts 154°
2026-05-06 11:35 56.96170 12.53653 20977 ft 389 kts 154°
2026-05-06 11:35 56.93859 12.56257 21484 ft 391 kts 154°
2026-05-06 11:35 56.91533 12.58872 21992 ft 393 kts 154°
2026-05-06 11:36 56.89192 12.61499 22503 ft 396 kts 154°
2026-05-06 11:36 56.86869 12.64102 23004 ft 398 kts 155°
2026-05-06 11:36 56.84499 12.66752 23500 ft 400 kts 155°
2026-05-06 11:36 56.82117 12.69407 23915 ft 402 kts 155°
2026-05-06 11:37 56.79724 12.72072 24330 ft 404 kts 155°
2026-05-06 11:37 56.77322 12.74752 24752 ft 405 kts 155°
2026-05-06 11:37 56.74914 12.77445 25157 ft 407 kts 155°
2026-05-06 11:37 56.72497 12.80137 25563 ft 408 kts 155°
2026-05-06 11:38 56.70068 12.82834 25934 ft 409 kts 155°
2026-05-06 11:38 56.67631 12.85532 26319 ft 411 kts 155°
2026-05-06 11:38 56.65183 12.88234 26690 ft 412 kts 155°
2026-05-06 11:38 56.62731 12.90941 27090 ft 413 kts 154°
2026-05-06 11:39 56.60246 12.93681 27509 ft 413 kts 154°
2026-05-06 11:39 56.57817 12.96358 27882 ft 414 kts 154°
2026-05-06 11:39 56.55352 12.99072 28270 ft 415 kts 154°
2026-05-06 11:39 56.52881 13.01785 28646 ft 416 kts 154°
2026-05-06 11:40 56.50401 13.04497 29014 ft 417 kts 154°
2026-05-06 11:40 56.48723 13.06328 29259 ft 417 kts 154°
2026-05-06 11:40 56.46235 13.09047 29618 ft 418 kts 154°
2026-05-06 11:40 56.43737 13.11772 29990 ft 420 kts 154°
2026-05-06 11:41 56.41246 13.14498 30370 ft 418 kts 154°
2026-05-06 11:41 56.38764 13.17216 30803 ft 416 kts 154°
2026-05-06 11:41 56.36293 13.19907 31240 ft 414 kts 154°
2026-05-06 11:41 56.33828 13.22575 31638 ft 413 kts 154°
2026-05-06 11:42 56.31368 13.25233 32040 ft 412 kts 154°
2026-05-06 11:42 56.28913 13.27882 32449 ft 411 kts 154°
2026-05-06 11:42 56.26465 13.30522 32858 ft 409 kts 153°
2026-05-06 11:42 56.24032 13.33147 33327 ft 406 kts 153°
2026-05-06 11:43 56.21617 13.35753 33780 ft 404 kts 153°
2026-05-06 11:43 56.19209 13.38348 34155 ft 403 kts 153°
2026-05-06 11:43 56.16807 13.40930 34433 ft 403 kts 154°
2026-05-06 11:44 56.11966 13.46060 34873 ft 405 kts 155°
2026-05-06 11:44 56.09476 13.48443 34937 ft 406 kts 157°
2026-05-06 11:44 56.04401 13.52831 34943 ft 405 kts 158°
2026-05-06 11:45 55.99301 13.57113 34950 ft 405 kts 158°
2026-05-06 11:45 55.94224 13.61498 34944 ft 405 kts 157°
2026-05-06 11:46 55.89162 13.65940 34948 ft 406 kts 157°
2026-05-06 11:46 55.84089 13.70368 34924 ft 406 kts 157°
2026-05-06 11:47 55.79000 13.74771 34919 ft 408 kts 157°
2026-05-06 11:47 55.73888 13.79174 34922 ft 409 kts 157°
2026-05-06 11:48 55.68758 13.83581 34932 ft 410 kts 157°
2026-05-06 11:48 55.63615 13.88002 34941 ft 411 kts 157°
2026-05-06 11:49 55.58468 13.92421 34937 ft 411 kts 157°
2026-05-06 11:49 55.53315 13.96826 34943 ft 412 kts 157°
2026-05-06 11:50 55.48155 14.01217 34936 ft 412 kts 156°
2026-05-06 11:50 55.42985 14.05604 34924 ft 413 kts 156°
2026-05-06 11:51 55.37835 14.09955 34926 ft 414 kts 156°
2026-05-06 11:51 55.32639 14.14336 34926 ft 414 kts 156°
2026-05-06 11:52 55.27439 14.18708 34930 ft 415 kts 156°
2026-05-06 11:52 55.22235 14.23065 34931 ft 415 kts 156°
2026-05-06 11:53 55.17022 14.27417 34928 ft 415 kts 156°
2026-05-06 11:53 55.11808 14.31765 34914 ft 415 kts 156°
2026-05-06 11:54 55.06593 14.36101 34917 ft 415 kts 156°
2026-05-06 11:54 55.01374 14.40433 34899 ft 415 kts 157°
2026-05-06 11:55 54.96152 14.44752 34908 ft 416 kts 157°
2026-05-06 11:55 54.90927 14.49068 34910 ft 416 kts 157°
2026-05-06 11:56 54.85688 14.53374 34902 ft 417 kts 157°
2026-05-06 11:56 54.80386 14.57404 34899 ft 415 kts 162°
2026-05-06 11:57 54.74932 14.60765 34892 ft 416 kts 162°
2026-05-06 11:57 54.69475 14.64126 34898 ft 416 kts 162°
2026-05-06 11:58 54.64016 14.67475 34893 ft 417 kts 162°
2026-05-06 11:58 54.58549 14.70823 34887 ft 416 kts 163°
2026-05-06 11:59 54.53095 14.74155 34891 ft 416 kts 162°
2026-05-06 11:59 54.47639 14.77470 34879 ft 416 kts 162°
2026-05-06 12:00 54.42186 14.80778 34884 ft 415 kts 163°
2026-05-06 12:00 54.36737 14.84077 34886 ft 415 kts 163°
2026-05-06 12:01 54.31289 14.87354 34859 ft 416 kts 163°
2026-05-06 12:01 54.25825 14.90624 34854 ft 416 kts 163°
2026-05-06 12:02 54.20334 14.93794 34853 ft 416 kts 164°
2026-05-06 12:02 54.14830 14.96899 34857 ft 416 kts 164°
2026-05-06 12:03 54.09322 15.00011 34823 ft 418 kts 164°
2026-05-06 12:03 54.03794 15.03104 34818 ft 419 kts 165°
2026-05-06 12:04 53.98223 15.06133 34820 ft 421 kts 166°
2026-05-06 12:04 53.92638 15.09137 34819 ft 422 kts 166°
2026-05-06 12:05 53.87040 15.12156 34824 ft 422 kts 166°
2026-05-06 12:05 53.81435 15.15186 34836 ft 423 kts 166°
2026-05-06 12:06 53.75829 15.18216 34818 ft 423 kts 166°
2026-05-06 12:06 53.70225 15.21232 34831 ft 423 kts 166°
2026-05-06 12:07 53.64618 15.24223 34828 ft 422 kts 166°
2026-05-06 12:07 53.59017 15.27201 34830 ft 422 kts 166°
2026-05-06 12:08 53.53411 15.30171 34821 ft 422 kts 166°
2026-05-06 12:08 53.47812 15.33173 34819 ft 423 kts 163°
2026-05-06 12:09 53.42430 15.37236 34824 ft 424 kts 160°
2026-05-06 12:09 53.37080 15.41360 34824 ft 423 kts 160°
2026-05-06 12:10 53.31733 15.45441 34822 ft 422 kts 160°
2026-05-06 12:10 53.26389 15.49510 34817 ft 422 kts 160°
2026-05-06 12:11 53.21056 15.53585 34782 ft 421 kts 161°
2026-05-06 12:11 53.15725 15.57649 34794 ft 421 kts 161°
2026-05-06 12:12 53.10398 15.61689 34799 ft 421 kts 161°
2026-05-06 12:12 53.05068 15.65710 34798 ft 420 kts 161°
2026-05-06 12:13 52.99740 15.69725 34796 ft 420 kts 161°
2026-05-06 12:13 52.94413 15.73736 34791 ft 420 kts 161°
2026-05-06 12:14 52.89083 15.77722 34797 ft 420 kts 161°
2026-05-06 12:14 52.83759 15.81687 34799 ft 420 kts 161°
2026-05-06 12:15 52.78431 15.85604 34780 ft 418 kts 162°
2026-05-06 12:15 52.73077 15.89343 34784 ft 418 kts 163°
2026-05-06 12:16 52.67713 15.93040 34785 ft 418 kts 163°
2026-05-06 12:16 52.62361 15.96752 34778 ft 418 kts 163°
2026-05-06 12:17 52.57007 16.00478 34778 ft 418 kts 163°
2026-05-06 12:17 52.51647 16.04200 34784 ft 418 kts 163°
2026-05-06 12:18 52.46289 16.07913 34791 ft 418 kts 163°
2026-05-06 12:18 52.40931 16.11615 34767 ft 418 kts 163°
2026-05-06 12:19 52.35569 16.15300 34778 ft 418 kts 163°
2026-05-06 12:19 52.30212 16.18977 34771 ft 417 kts 163°
2026-05-06 12:20 52.24862 16.22643 34782 ft 417 kts 163°
2026-05-06 12:20 52.19516 16.26293 34773 ft 417 kts 163°
2026-05-06 12:21 52.15067 16.29318 34772 ft 417 kts 163°
2026-05-06 12:21 52.09723 16.32951 34734 ft 417 kts 163°
2026-05-06 12:22 52.04368 16.36582 34746 ft 417 kts 163°
2026-05-06 12:22 51.99004 16.40211 34735 ft 418 kts 164°
2026-05-06 12:23 51.93642 16.43834 34746 ft 417 kts 164°
2026-05-06 12:23 51.88281 16.47440 34754 ft 417 kts 164°
2026-05-06 12:24 51.82915 16.51024 34746 ft 417 kts 164°
2026-05-06 12:24 51.77557 16.54609 34760 ft 417 kts 164°
2026-05-06 12:25 51.72202 16.58183 34767 ft 416 kts 164°
2026-05-06 12:25 51.66851 16.61740 34770 ft 416 kts 164°
2026-05-06 12:26 51.61504 16.65284 34744 ft 415 kts 165°
2026-05-06 12:26 51.56158 16.68819 34739 ft 415 kts 165°
2026-05-06 12:27 51.50827 16.72353 34759 ft 414 kts 165°
2026-05-06 12:27 51.45498 16.75871 34768 ft 414 kts 165°
2026-05-06 12:28 51.40171 16.79362 34766 ft 413 kts 165°
2026-05-06 12:28 51.34844 16.82843 34770 ft 413 kts 165°
2026-05-06 12:29 51.29525 16.86325 34750 ft 413 kts 165°
2026-05-06 12:29 51.24197 16.89792 34744 ft 413 kts 165°
2026-05-06 12:30 51.18866 16.93247 34757 ft 414 kts 165°
2026-05-06 12:30 51.13531 16.96714 34763 ft 415 kts 165°
2026-05-06 12:31 51.08187 17.00191 34773 ft 415 kts 165°
2026-05-06 12:31 51.02830 17.03655 34762 ft 415 kts 165°
2026-05-06 12:32 50.97474 17.07107 34773 ft 416 kts 165°
2026-05-06 12:32 50.92111 17.10546 34782 ft 416 kts 165°
2026-05-06 12:33 50.86741 17.13982 34787 ft 416 kts 165°
2026-05-06 12:33 50.81374 17.17423 34777 ft 416 kts 164°
2026-05-06 12:34 50.76000 17.20858 34773 ft 417 kts 164°
2026-05-06 12:34 50.70617 17.24285 34792 ft 417 kts 165°
2026-05-06 12:35 50.65232 17.27693 34801 ft 417 kts 165°
2026-05-06 12:35 50.59851 17.31090 34811 ft 417 kts 165°
2026-05-06 12:36 50.54466 17.34496 34809 ft 417 kts 164°
2026-05-06 12:36 50.49083 17.37901 34795 ft 417 kts 164°
2026-05-06 12:37 50.43700 17.41289 34788 ft 417 kts 164°
2026-05-06 12:37 50.38314 17.44665 34807 ft 417 kts 165°
2026-05-06 12:38 50.32921 17.48015 34809 ft 417 kts 165°
2026-05-06 12:38 50.27526 17.51357 34823 ft 417 kts 165°
2026-05-06 12:39 50.22145 17.54765 34811 ft 418 kts 163°
2026-05-06 12:39 50.16783 17.58261 34826 ft 418 kts 163°
2026-05-06 12:40 50.11420 17.61755 34825 ft 418 kts 163°
2026-05-06 12:40 50.06052 17.65222 34819 ft 418 kts 163°
2026-05-06 12:41 50.00677 17.68659 34822 ft 418 kts 163°
2026-05-06 12:41 49.95301 17.72082 34817 ft 418 kts 163°
2026-05-06 12:42 49.89922 17.75513 34818 ft 418 kts 163°
2026-05-06 12:42 49.84542 17.78946 34825 ft 418 kts 163°
2026-05-06 12:43 49.79158 17.82371 34839 ft 419 kts 163°
2026-05-06 12:43 49.73768 17.85788 34847 ft 419 kts 163°
2026-05-06 12:44 49.68376 17.89190 34849 ft 419 kts 163°
2026-05-06 12:44 49.62979 17.92582 34851 ft 419 kts 163°
2026-05-06 12:45 49.57587 17.95975 34852 ft 419 kts 163°
2026-05-06 12:46 49.49501 18.01060 34854 ft 419 kts 163°
2026-05-06 12:46 49.44106 18.04438 34841 ft 418 kts 164°
2026-05-06 12:47 49.38712 18.07807 34844 ft 419 kts 164°
2026-05-06 12:47 49.33308 18.11165 34829 ft 420 kts 164°
2026-05-06 12:48 49.27882 18.14521 34832 ft 422 kts 164°
2026-05-06 12:48 49.22525 18.18284 34838 ft 428 kts 157°
2026-05-06 12:49 49.17305 18.22684 34825 ft 429 kts 157°
2026-05-06 12:49 49.12064 18.27088 34831 ft 430 kts 157°
2026-05-06 12:50 49.06806 18.31482 34843 ft 431 kts 157°
2026-05-06 12:50 49.01547 18.35875 34829 ft 431 kts 156°
2026-05-06 12:51 48.96284 18.40256 34843 ft 432 kts 156°
2026-05-06 12:51 48.91009 18.44631 34843 ft 432 kts 156°
2026-05-06 12:52 48.85727 18.48999 34848 ft 433 kts 156°
2026-05-06 12:52 48.80439 18.53370 34874 ft 433 kts 156°
2026-05-06 12:53 48.75139 18.57724 34873 ft 433 kts 157°
2026-05-06 12:53 48.69842 18.62077 34867 ft 433 kts 156°
2026-05-06 12:54 48.64544 18.66430 34861 ft 434 kts 156°
2026-05-06 12:54 48.59229 18.70779 34876 ft 434 kts 156°
2026-05-06 12:55 48.53910 18.75117 34877 ft 435 kts 156°
2026-05-06 12:55 48.48579 18.79457 34876 ft 435 kts 156°
2026-05-06 12:56 48.43249 18.83788 34891 ft 436 kts 156°
2026-05-06 12:56 48.37916 18.88118 34872 ft 436 kts 156°
2026-05-06 12:57 48.32563 18.92435 34880 ft 436 kts 157°
2026-05-06 12:57 48.27208 18.96741 34883 ft 437 kts 157°
2026-05-06 12:58 48.21848 19.01060 34893 ft 438 kts 156°
2026-05-06 12:58 48.16483 19.05377 34892 ft 438 kts 157°
2026-05-06 12:59 48.11113 19.09676 34882 ft 438 kts 157°
2026-05-06 12:59 48.06600 19.13074 34878 ft 434 kts 164°
2026-05-06 13:00 47.99954 19.16575 34885 ft 433 kts 166°
2026-05-06 13:00 47.94299 19.19535 34896 ft 434 kts 166°
2026-05-06 13:01 47.89527 19.22037 34890 ft 434 kts 166°
2026-05-06 13:01 47.83825 19.25022 34897 ft 435 kts 166°
2026-05-06 13:02 47.78117 19.27993 34912 ft 435 kts 166°
2026-05-06 13:02 47.72407 19.30952 34907 ft 435 kts 166°
2026-05-06 13:03 47.66685 19.33909 34915 ft 436 kts 166°
2026-05-06 13:03 47.60956 19.36872 34915 ft 436 kts 166°
2026-05-06 13:04 47.55229 19.39834 34924 ft 436 kts 166°
2026-05-06 13:04 47.49497 19.42788 34928 ft 436 kts 166°
2026-05-06 13:05 47.43769 19.45724 34930 ft 436 kts 166°
2026-05-06 13:05 47.38038 19.48653 34911 ft 435 kts 166°
2026-05-06 13:06 47.32313 19.51574 34917 ft 435 kts 166°
2026-05-06 13:06 47.26587 19.54499 34921 ft 436 kts 166°
2026-05-06 13:07 47.20859 19.57422 34929 ft 436 kts 166°
2026-05-06 13:07 47.15128 19.60323 34933 ft 436 kts 166°
2026-05-06 13:08 47.09390 19.63223 34936 ft 436 kts 166°
2026-05-06 13:08 47.03661 19.66122 34928 ft 436 kts 166°
2026-05-06 13:09 46.97930 19.69013 34954 ft 436 kts 166°
2026-05-06 13:09 46.92193 19.71901 34942 ft 436 kts 166°
2026-05-06 13:10 46.86458 19.74775 34944 ft 436 kts 166°
2026-05-06 13:10 46.80717 19.77641 34959 ft 436 kts 166°
2026-05-06 13:11 46.74969 19.80505 34957 ft 436 kts 166°
2026-05-06 13:11 46.69226 19.83369 34939 ft 436 kts 166°
2026-05-06 13:12 46.63474 19.86241 34932 ft 437 kts 166°
2026-05-06 13:12 46.57713 19.89096 34932 ft 438 kts 167°
2026-05-06 13:13 46.51939 19.91948 34941 ft 438 kts 167°
2026-05-06 13:13 46.46170 19.94798 34945 ft 438 kts 167°
2026-05-06 13:14 46.40391 19.97651 34930 ft 439 kts 167°
2026-05-06 13:14 46.34602 20.00494 34934 ft 440 kts 167°
2026-05-06 13:15 46.28807 20.03338 34935 ft 440 kts 167°
2026-05-06 13:15 46.23005 20.06182 34941 ft 440 kts 167°
2026-05-06 13:16 46.17197 20.09015 34926 ft 441 kts 166°
2026-05-06 13:16 46.11522 20.12551 34932 ft 445 kts 161°
2026-05-06 13:17 46.05870 20.16212 34943 ft 446 kts 161°
2026-05-06 13:17 46.00213 20.19869 34943 ft 446 kts 161°
2026-05-06 13:18 45.94551 20.23523 34934 ft 446 kts 161°
2026-05-06 13:18 45.88882 20.27173 34941 ft 447 kts 161°
2026-05-06 13:19 45.83208 20.30811 34948 ft 447 kts 161°
2026-05-06 13:19 45.77525 20.34440 34950 ft 447 kts 161°
2026-05-06 13:20 45.71842 20.38070 34949 ft 447 kts 161°
2026-05-06 13:20 45.66156 20.41697 34942 ft 448 kts 161°
2026-05-06 13:21 45.60462 20.45312 34947 ft 448 kts 161°
2026-05-06 13:21 45.54761 20.48928 34959 ft 449 kts 161°
2026-05-06 13:22 45.49057 20.52546 34951 ft 449 kts 161°
2026-05-06 13:22 45.43353 20.56142 34962 ft 448 kts 161°
2026-05-06 13:23 45.37649 20.59734 34973 ft 448 kts 161°
2026-05-06 13:23 45.31937 20.63327 34963 ft 449 kts 161°
2026-05-06 13:24 45.26219 20.66909 34953 ft 449 kts 161°
2026-05-06 13:24 45.20500 20.70487 34972 ft 449 kts 161°
2026-05-06 13:25 45.14787 20.74051 34980 ft 448 kts 161°
2026-05-06 13:25 45.09079 20.77617 34976 ft 448 kts 160°
2026-05-06 13:26 45.03367 20.81179 34968 ft 449 kts 160°
2026-05-06 13:26 44.97648 20.84715 34976 ft 449 kts 161°
2026-05-06 13:27 44.91931 20.88244 34982 ft 448 kts 160°
2026-05-06 13:27 44.86218 20.91780 34983 ft 448 kts 160°
2026-05-06 13:28 44.80500 20.95309 34974 ft 448 kts 161°
2026-05-06 13:28 44.74782 20.98821 34970 ft 449 kts 160°
2026-05-06 13:29 44.69052 21.02337 34968 ft 449 kts 160°
2026-05-06 13:29 44.63319 21.05853 34970 ft 450 kts 160°
2026-05-06 13:30 44.57582 21.09361 34961 ft 450 kts 160°
2026-05-06 13:30 44.51845 21.12857 34975 ft 450 kts 160°
2026-05-06 13:31 44.46106 21.16355 34974 ft 450 kts 160°
2026-05-06 13:31 44.40360 21.19841 34975 ft 450 kts 160°
2026-05-06 13:32 44.34611 21.23314 34965 ft 450 kts 160°
2026-05-06 13:32 44.28827 21.26644 34979 ft 449 kts 163°
2026-05-06 13:33 44.22967 21.29605 34985 ft 448 kts 165°
2026-05-06 13:33 44.17126 21.32458 34978 ft 448 kts 164°
2026-05-06 13:34 44.11258 21.35398 34968 ft 448 kts 163°
2026-05-06 13:34 44.05401 21.38398 34974 ft 449 kts 163°
2026-05-06 13:35 43.99539 21.41378 34973 ft 449 kts 163°
2026-05-06 13:35 43.93672 21.44339 34978 ft 448 kts 163°
2026-05-06 13:36 43.87806 21.47302 34967 ft 448 kts 163°
2026-05-06 13:36 43.81939 21.50260 34968 ft 449 kts 163°
2026-05-06 13:37 43.76067 21.53214 34966 ft 449 kts 163°
2026-05-06 13:37 43.70188 21.56155 34971 ft 450 kts 163°
2026-05-06 13:38 43.64306 21.59091 34967 ft 449 kts 163°
2026-05-06 13:38 43.58422 21.62030 34973 ft 450 kts 163°
2026-05-06 13:39 43.52536 21.64966 34969 ft 450 kts 163°
2026-05-06 13:39 43.46636 21.67895 34962 ft 451 kts 163°
2026-05-06 13:40 43.40728 21.70828 34972 ft 452 kts 163°
2026-05-06 13:40 43.34816 21.73758 34980 ft 452 kts 163°
2026-05-06 13:41 43.29902 21.76184 34985 ft 452 kts 163°
2026-05-06 13:41 43.23984 21.79100 34985 ft 452 kts 163°
2026-05-06 13:42 43.18076 21.82013 34990 ft 451 kts 163°
2026-05-06 13:42 43.12170 21.84919 34992 ft 451 kts 164°
2026-05-06 13:43 43.06264 21.87815 34996 ft 451 kts 164°
2026-05-06 13:43 43.00359 21.90700 34998 ft 450 kts 164°
2026-05-06 13:44 42.94455 21.93570 34990 ft 451 kts 163°
2026-05-06 13:44 42.88546 21.96454 34997 ft 452 kts 163°
2026-05-06 13:45 42.82626 21.99347 34998 ft 452 kts 164°
2026-05-06 13:45 42.73736 22.03651 35011 ft 452 kts 164°
2026-05-06 13:46 42.67808 22.06510 35019 ft 452 kts 164°
2026-05-06 13:46 42.61882 22.09370 35025 ft 452 kts 164°
2026-05-06 13:47 42.55948 22.12229 35033 ft 452 kts 164°
2026-05-06 13:47 42.50018 22.15090 35030 ft 453 kts 163°
2026-05-06 13:48 42.44077 22.17937 35035 ft 453 kts 163°
2026-05-06 13:48 42.38136 22.20774 35026 ft 453 kts 163°
2026-05-06 13:49 42.32186 22.23619 35028 ft 453 kts 165°
2026-05-06 13:49 42.26067 22.25400 35029 ft 449 kts 174°
2026-05-06 13:50 42.19904 22.26844 35023 ft 450 kts 174°
2026-05-06 13:50 42.13741 22.28298 35027 ft 450 kts 174°
2026-05-06 13:51 42.07574 22.29751 35034 ft 450 kts 174°
2026-05-06 13:51 42.01404 22.31206 35037 ft 450 kts 174°
2026-05-06 13:52 41.95232 22.32656 35035 ft 450 kts 174°
2026-05-06 13:52 41.89061 22.34102 35030 ft 450 kts 174°
2026-05-06 13:53 41.82885 22.35541 35035 ft 451 kts 174°
2026-05-06 13:53 41.76700 22.36970 35033 ft 451 kts 174°
2026-05-06 13:54 41.70518 22.38400 35036 ft 451 kts 174°
2026-05-06 13:54 41.64341 22.39841 35035 ft 451 kts 174°
2026-05-06 13:55 41.58164 22.41274 35027 ft 451 kts 174°
2026-05-06 13:55 41.51985 22.42695 35032 ft 450 kts 174°
2026-05-06 13:56 41.45812 22.44116 35036 ft 450 kts 174°
2026-05-06 13:56 41.39638 22.45541 35037 ft 450 kts 174°
2026-05-06 13:57 41.33464 22.46960 35027 ft 450 kts 174°
2026-05-06 13:57 41.27288 22.48377 35022 ft 451 kts 174°
2026-05-06 13:58 41.21096 22.49795 35024 ft 452 kts 174°
2026-05-06 13:58 41.14898 22.51206 35022 ft 452 kts 174°
2026-05-06 13:59 41.08670 22.52117 35029 ft 450 kts 179°
2026-05-06 13:59 41.02432 22.52798 35035 ft 450 kts 179°
2026-05-06 14:00 40.96195 22.53480 35027 ft 449 kts 179°
2026-05-06 14:00 40.89961 22.54149 35041 ft 449 kts 179°
2026-05-06 14:01 40.83741 22.54825 35044 ft 449 kts 179°
2026-05-06 14:01 40.77523 22.55496 35051 ft 448 kts 179°
2026-05-06 14:02 40.71316 22.56173 35038 ft 447 kts 179°
2026-05-06 14:02 40.65114 22.56840 35046 ft 447 kts 179°
2026-05-06 14:03 40.58917 22.57497 35048 ft 446 kts 179°
2026-05-06 14:03 40.52726 22.58147 35052 ft 446 kts 179°
2026-05-06 14:04 40.46539 22.58814 35048 ft 446 kts 179°
2026-05-06 14:04 40.40350 22.59477 35050 ft 446 kts 179°
2026-05-06 14:05 40.34167 22.60229 35047 ft 448 kts 174°
2026-05-06 14:05 40.28199 22.62752 35049 ft 454 kts 160°
2026-05-06 14:06 40.22421 22.65983 35056 ft 455 kts 160°
2026-05-06 14:06 40.16594 22.69213 35058 ft 455 kts 160°
2026-05-06 14:07 40.10759 22.72427 35055 ft 455 kts 160°
2026-05-06 14:07 40.04888 22.75664 35056 ft 455 kts 160°
2026-05-06 14:08 39.99056 22.78884 35066 ft 455 kts 160°
2026-05-06 14:08 39.93210 22.82095 35054 ft 456 kts 160°
2026-05-06 14:09 39.87398 22.85289 35044 ft 457 kts 160°
2026-05-06 14:09 39.81543 22.88510 35049 ft 457 kts 160°
2026-05-06 14:10 39.75636 22.91744 35037 ft 459 kts 160°
2026-05-06 14:10 39.69728 22.94963 35023 ft 461 kts 160°
2026-05-06 14:11 39.63800 22.98195 35032 ft 463 kts 160°
2026-05-06 14:11 39.57856 23.01438 35032 ft 464 kts 160°
2026-05-06 14:12 39.51898 23.04672 35044 ft 464 kts 160°
2026-05-06 14:12 39.45921 23.07901 34212 ft 468 kts 160°
2026-05-06 14:13 39.42923 23.09525 33400 ft 464 kts 160°
2026-05-06 14:13 39.39956 23.11134 32384 ft 460 kts 160°
2026-05-06 14:13 39.37018 23.12726 31407 ft 456 kts 160°
2026-05-06 14:13 39.34135 23.14282 30619 ft 455 kts 160°
2026-05-06 14:14 39.31221 23.15850 30131 ft 452 kts 160°
2026-05-06 14:14 39.28330 23.17406 29579 ft 449 kts 160°
2026-05-06 14:14 39.25453 23.18959 29045 ft 446 kts 160°
2026-05-06 14:14 39.22610 23.20499 28702 ft 439 kts 160°
2026-05-06 14:15 39.19819 23.22009 28429 ft 431 kts 160°
2026-05-06 14:15 39.17070 23.23489 28157 ft 425 kts 160°
2026-05-06 14:15 39.14362 23.24940 27894 ft 419 kts 160°
2026-05-06 14:15 39.11688 23.26368 27646 ft 413 kts 160°
2026-05-06 14:16 39.09040 23.27780 27486 ft 411 kts 160°
2026-05-06 14:16 39.06399 23.29190 27334 ft 410 kts 160°
2026-05-06 14:16 39.03766 23.30596 27178 ft 410 kts 160°
2026-05-06 14:16 39.01135 23.32002 27025 ft 409 kts 160°
2026-05-06 14:17 38.98513 23.33416 26874 ft 409 kts 157°
2026-05-06 14:17 38.96067 23.35266 26568 ft 408 kts 146°
2026-05-06 14:17 38.93755 23.37356 26186 ft 406 kts 145°
2026-05-06 14:17 38.91459 23.39454 25806 ft 404 kts 145°
2026-05-06 14:18 38.89178 23.41533 25425 ft 401 kts 145°
2026-05-06 14:18 38.86906 23.43595 24952 ft 398 kts 145°
2026-05-06 14:18 38.84642 23.45638 24347 ft 397 kts 145°
2026-05-06 14:18 38.82384 23.47664 23774 ft 395 kts 145°
2026-05-06 14:19 38.80131 23.49675 23151 ft 393 kts 145°
2026-05-06 14:19 38.77895 23.51666 22566 ft 389 kts 145°
2026-05-06 14:19 38.75686 23.53637 22013 ft 385 kts 145°
2026-05-06 14:19 38.73505 23.55587 21481 ft 381 kts 145°
2026-05-06 14:20 38.71346 23.57521 20949 ft 376 kts 145°
2026-05-06 14:20 38.69216 23.59434 20439 ft 372 kts 145°
2026-05-06 14:20 38.67109 23.61331 19932 ft 368 kts 145°
2026-05-06 14:20 38.65029 23.63209 19439 ft 364 kts 145°
2026-05-06 14:21 38.62976 23.65076 18936 ft 360 kts 144°
2026-05-06 14:21 38.61087 23.67143 18456 ft 356 kts 136°
2026-05-06 14:21 38.59323 23.69349 17906 ft 353 kts 135°
2026-05-06 14:21 38.57589 23.71545 17374 ft 349 kts 135°
2026-05-06 14:22 38.56448 23.72986 17035 ft 347 kts 135°
2026-05-06 14:22 38.54738 23.75140 16513 ft 344 kts 135°
2026-05-06 14:22 38.52464 23.77978 15826 ft 339 kts 135°
2026-05-06 14:22 38.51347 23.79363 15494 ft 337 kts 135°
2026-05-06 14:23 38.49670 23.81434 14956 ft 333 kts 135°
2026-05-06 14:23 38.48010 23.83475 14410 ft 330 kts 135°
2026-05-06 14:23 38.46365 23.85488 13880 ft 326 kts 135°
2026-05-06 14:23 38.44731 23.87475 13295 ft 323 kts 135°
2026-05-06 14:24 38.43121 23.89440 12730 ft 318 kts 135°
2026-05-06 14:24 38.41537 23.91387 12160 ft 313 kts 135°
2026-05-06 14:24 38.39983 23.93309 11574 ft 309 kts 135°
2026-05-06 14:24 38.38451 23.95208 11008 ft 306 kts 135°
2026-05-06 14:25 38.36946 23.97094 10447 ft 302 kts 133°
2026-05-06 14:25 38.35817 23.99298 9893 ft 296 kts 110°
2026-05-06 14:25 38.35168 24.01776 9297 ft 293 kts 106°
2026-05-06 14:25 38.34596 24.04266 8703 ft 292 kts 105°
2026-05-06 14:26 38.34033 24.06755 8118 ft 296 kts 105°
2026-05-06 14:26 38.33455 24.09308 7551 ft 303 kts 105°
2026-05-06 14:26 38.32868 24.11876 7273 ft 299 kts 105°
2026-05-06 14:26 38.32295 24.14390 7033 ft 292 kts 105°
2026-05-06 14:27 38.31637 24.16810 6791 ft 288 kts 118°
2026-05-06 14:27 38.30341 24.18696 6546 ft 283 kts 146°
2026-05-06 14:27 38.28546 24.19627 6300 ft 279 kts 171°
2026-05-06 14:27 38.26621 24.19960 6042 ft 279 kts 175°
2026-05-06 14:28 38.24697 24.20212 5794 ft 278 kts 175°
2026-05-06 14:28 38.22774 24.20464 5549 ft 277 kts 175°
2026-05-06 14:28 38.20865 24.20484 5296 ft 273 kts 191°
2026-05-06 14:28 38.19075 24.19748 5050 ft 269 kts 210°
2026-05-06 14:29 38.17544 24.18408 4809 ft 267 kts 219°
2026-05-06 14:29 38.16076 24.16992 4553 ft 263 kts 219°
2026-05-06 14:29 38.14623 24.15596 4300 ft 260 kts 218°
2026-05-06 14:29 38.13190 24.14222 4075 ft 255 kts 218°
2026-05-06 14:30 38.11827 24.12918 3993 ft 235 kts 218°
2026-05-06 14:30 38.10564 24.11709 3951 ft 222 kts 218°
2026-05-06 14:30 38.09361 24.10556 3736 ft 211 kts 218°
2026-05-06 14:30 38.08232 24.09476 3481 ft 195 kts 218°
2026-05-06 14:31 38.07174 24.08464 3267 ft 187 kts 218°
2026-05-06 14:31 38.06141 24.07475 2998 ft 186 kts 217°
2026-05-06 14:31 38.05105 24.06484 2754 ft 186 kts 216°
2026-05-06 14:31 38.04086 24.05510 2511 ft 180 kts 216°
2026-05-06 14:32 38.03146 24.04612 2298 ft 157 kts 215°
2026-05-06 14:32 38.02324 24.03827 2092 ft 143 kts 215°
2026-05-06 14:32 38.01542 24.03080 1897 ft 140 kts 215°
2026-05-06 14:32 38.00765 24.02339 1724 ft 139 kts 214°
2026-05-06 14:33 38.00000 24.01609 1542 ft 139 kts 215°
2026-05-06 14:33 37.99224 24.00870 1361 ft 139 kts 214°
2026-05-06 14:33 37.98456 24.00137 1180 ft 137 kts 215°
2026-05-06 14:33 37.97697 23.99413 999 ft 136 kts 215°
2026-05-06 14:34 37.96945 23.98697 818 ft 135 kts 216°
2026-05-06 14:34 37.96200 23.97987 652 ft 132 kts 216°
2026-05-06 14:34 37.95471 23.97292 449 ft 129 kts 217°
2026-05-06 14:34 37.94764 23.96616 303 ft 119 kts 217°
2026-05-06 14:35 37.94222 23.96104 285 ft 73 kts 216°
2026-05-06 14:35 37.93927 23.95815 279 ft 43 kts 225°
2026-05-06 14:35 37.93807 23.95565 290 ft 18 kts 245°
2026-05-06 14:35 37.93775 23.95470 295 ft 10 kts 247°
2026-05-06 14:36 37.93750 23.95396 297 ft 9 kts 246°
2026-05-06 14:36 37.93708 23.95336 297 ft 10 kts 215°
2026-05-06 14:36 37.93651 23.95271 298 ft 12 kts 243°
2026-05-06 14:36 37.93676 23.95176 300 ft 13 kts 308°
2026-05-06 14:37 37.93708 23.95073 303 ft 14 kts 250°
2026-05-06 14:37 37.93629 23.94988 302 ft 15 kts 217°
2026-05-06 14:37 37.93616 23.94944 301 ft 6 kts 291°
2026-05-06 14:37 37.93643 23.94899 303 ft 6 kts 307°
2026-05-06 14:38 37.93652 23.94883 302 ft 0 kts 307°